Location: Luz Observatory
(34.5000°N, 117.2833°W)
Time: 23:41:46
(UTC-07:00)

Okean 3 Rocket - Visible Passes

Search period start: 30 March 2015 00:00
Search period end: 09 April 2015 00:00
Orbit: 617 x 645 km, 82.5° (Epoch: 30 March)

Date Brightness Start Highest point End Pass type
(mag) Time Alt. Az. Time Alt. Az. Time Alt. Az.
30 Mar 7.0 04:39:55 10° E 04:40:39 10° E 04:41:41 10° ENE visible
31 Mar 6.0 04:58:09 10° SE 05:01:34 23° E 05:05:09 10° NE visible
01 Apr 4.5 05:18:18 10° SSE 05:22:34 50° E 05:26:55 10° NNE visible
02 Apr 3.5 05:39:14 10° SSW 05:43:39 72° W 05:48:08 10° N visible
03 Apr 6.4 04:24:11 10° SE 04:26:57 17° E 04:29:56 10° NE visible
03 Apr 4.3 06:00:52 10° SW 06:04:52 32° WNW 06:08:53 10° NNW visible
04 Apr 5.1 04:43:53 10° SSE 04:47:55 36° E 04:52:03 10° NNE visible
05 Apr 3.6 05:04:31 10° S 05:08:57 82° E 05:13:28 10° N visible
06 Apr 6.5 03:50:38 10° ESE 03:52:21 12° E 03:54:20 10° ENE visible
06 Apr 3.9 05:26:03 11° SSW 05:30:07 44° W 05:34:25 10° N visible
07 Apr 5.6 04:10:23 14° SE 04:13:17 26° E 04:17:04 10° NNE visible
07 Apr 4.9 05:47:59 10° SW 05:51:26 21° WNW 05:54:48 10° NNW visible
08 Apr 4.1 04:32:05 28° SSE 04:34:17 58° E 04:38:43 10° NNE visible
